Regional Weather Roundup
Issued by NWS Kansas City/Pleasant Hill, MO

Home | Current Version | Previous Version | Text Only | Print | Product List | Glossary On
Versions: 1 2 3 4 5 6 7 8 9 10 11 12 13 14 15 16 17 18 19 20 21 22 23 24 25 26 27 28 29 30 31 32 33 34 35 36 37 38 39 40 41 42 43 44 45 46 47 48 49 50
727
ASUS43 KEAX 271910
RWREAX

WEATHER ROUNDUP FOR EASTERN KANSAS AND NORTHWEST MISSOURI
NATIONAL WEATHER SERVICE KANSAS CITY/PLEASANT HILL MO
200 PM CDT TUE SEP 27 2016

KSZ040-057-103>105-MOZ028-029-037-043-272000-
...KANSAS CITY METROPOLITAN AREA...

CITY           SKY/WX    TMP DP  RH WIND       PRES   REMARKS
K.C. INTL      SUNNY     75  52  44 W7        29.96F
K.C. DOWNTOWN  SUNNY     77  52  41 S5        29.95F
LEES SUMMIT    SUNNY     77  51  40 W6        29.97F
OLATHE - IXD   SUNNY     77  51  40 W7        29.98F
OLATHE - OJC   SUNNY     76  50  40 W8        29.97F
LAWRENCE       SUNNY     78  51  38 W8        29.97F

$$

MOZ001>008-011>017-020>025-030>033-038>040-044>046-053-054-272000-
...NORTHERN AND CENTRAL MISSOURI...

CITY           SKY/WX    TMP DP  RH WIND       PRES   REMARKS
ST. JOSEPH     SUNNY     79  50  36 VRB3      29.95F
MOSBY          CLEAR     77  46  33 SW6       29.94F
WHITEMAN AFB   SUNNY     78  51  38 W12       29.94F
CLINTON        SUNNY     77  54  44 SW10      29.98F
SEDALIA        SUNNY     80  50  34 SW12      29.97F
WARSAW         NOT AVBL
CHILLICOTHE      N/A     78  48  34 NW7       29.94F
KIRKSVILLE     SUNNY     75  43  31 NW16G23   29.92F

$$

MOZ041-047>049-056>058-063>065-088>090-097-272000-
...EASTERN AND SOUTHERN MISSOURI...

CITY           SKY/WX    TMP DP  RH WIND       PRES   REMARKS
ST. LOUIS INTL MOSUNNY   80  47  31 W15G21    29.93F
SPIRIT OF STL  SUNNY     78  50  37 SW12      29.92F
COLUMBIA       SUNNY     77  49  37 SW13      29.95F
JEFFERSON CITY SUNNY     79  48  33 SW12G18   29.94F
ROLLA          SUNNY     76  47  35 W15       29.97F
OSAGE BEACH    SUNNY     77  50  38 W9        29.99F
SPRINGFIELD    SUNNY     78  42  27 W12       30.02F
BRANSON        MOSUNNY   73  46  38 W3        30.06F
JOPLIN         SUNNY     78  50  37 SW13      30.03F
WEST PLAINS    SUNNY     76  48  37 W10       30.04F

$$

IAZ060-094-KSZ022-034>040-054-083-096-NEZ052-066-093-272000-
...KANSAS...SOUTHEAST NEBRASKA AND IOWA...

CITY           SKY/WX    TMP DP  RH WIND       PRES   REMARKS
TOPEKA         SUNNY     79  52  38 W8        29.97F
MANHATTAN      SUNNY     81  50  33 VRB3      29.98F
EMPORIA        SUNNY     79  53  40 W3        29.99F
CHANUTE        SUNNY     79  52  38 SW12      30.00F
WICHITA        SUNNY     79  53  40 W6        30.02F
OMAHA          SUNNY     77  42  28 W10       29.94F
LINCOLN        SUNNY     79  44  28 NW5       29.97F
FALLS CITY     SUNNY     76  50  40 NW7       29.95F
LAMONI         SUNNY     75  43  31 NW15      29.92F
DES MOINES     MOSUNNY   75  40  28 NW13G24   29.88F

$$





USA.gov is the U.S. government's official web portal to all federal, state and local government web resources and services.